Retour au catalogue

CZ-6A DEB

ActifPO
NORAD 60627·DEBRIS·🇨🇳 China

Lancé Aug 6, 2024 depuis Taiyuan Satellite Launch Center

Loading…

Prochains Passages (prochaines 24 heures)

TLE

FraisSource: Space-Track

Époque: Sep 14, 2026, 02:54 UTC

1 60627U 24140AC  26257.12147684 -.00000280  00000-0 -30210-3 0  9998
2 60627  88.0630 204.7165 0539252 234.6333 120.3282 13.25546372101629

Suivez CZ-6A DEB en temps réel avec AllMySat

Download on the App Store